www.pogodaiklimat.ru

Погода и климат >> Архив погоды >> Норвегия >> Маяк Utsira


ПОГОДА на Маяке Utsira

  • Прогноз погоды на Маяке Utsira
  • Монитор погоды на Маяке Utsira

АРХИВ ПОГОДЫ на Маяке Utsira

Время (UTC), дата Ветер
(напр.,м/с)
 
Видим.   Явления Облачность Т
(С)
Тd
(С)
f
(%)
Тe
(С)
Тes
(С)
Комфортность P
(гПа)
Po
(гПа)
Тmin
(С)
Tmax
(С)
R
(мм)
R24
(мм)
S
(см)
07 17.03 СВ 10
{14}
н/о н/о +3.1 +0.3 82 -4 -4 967.7 961.0
08 17.03 С 8
{15}
н/о н/о +3.9 +0.8 80 -2 -2 968.9 962.2
09 17.03 С 13
{17}
15 км слаб. ливневой дождь 9/8 600 м
[Cb cap Ac As]
+4.1 +0.1 75 -3 -3 970.5 963.8
10 17.03 СЗ 9
{17}
н/о н/о +4.0 +0.2 76 -2 -2 972.0 965.3
11 17.03 СЗ 10
{14}
н/о н/о +3.8 +0.5 79 -3 -3 973.2 966.5
12 17.03 СЗ 12
{17}
40 км {ливн. осадки, дождь} 9/6 600 м
[Sc Ac As]
+4.1 +0.3 76 -3 -3 974.1 967.4
13 17.03 СЗ 13
{17}
н/о н/о +4.9 -0.9 66 -2 -2 975.3 968.6
14 17.03 СЗ 14
{18}
н/о н/о +5.1 -1.3 63 -2 -2 976.5 969.8
15 17.03 С 11
{18}
55 км 3/1 1000 м
[Sc Ac lent Ci sp]
+5.2 -0.4 67 -1 -1 977.6 970.9
16 17.03 С 12
{18}
н/о н/о +5.2 -0.4 67 -1 -1 978.8 972.1
17 17.03 СЗ 15
{20}
н/о н/о +4.8 +0.6 74 -3 -3 980.3 973.6
18 17.03 С 15
{20}
25 км 5/1 600 м
[Sc Cs]
+4.2 +0.7 78 -4 -4 981.6 974.8 +3.1 +5.3
19 17.03 С 18
{22}
н/о н/о +4.0 +0.2 76 -4 -4 982.9 976.1
20 17.03 С 19
{25}
н/о н/о +4.0 0.0 75 -5 -5 984.4 977.6
21 17.03 С 19
{27}
30 км 1/1 600 м
[Cu hum]
+4.2 -0.2 73 -4 -4 985.7 978.9
22 17.03 С 20
{26}
н/о н/о +4.3 -0.1 73 -4 -4 987.3 980.5
23 17.03 С 21
{27}
н/о н/о +4.3 +0.3 75 -4 -4 988.7 981.9
00 18.03 С 22
{29}
н/о н/о +4.3 +0.1 74 -5 -5 990.2 983.4
01 18.03 С 20
{28}
н/о н/о +4.4 +0.6 76 -4 -4 992.2 985.4
02 18.03 С 22
{27}
н/о н/о +4.4 +0.6 76 -4 -4 993.6 986.8
03 18.03 С 21
{28}
н/о н/о +4.3 +0.8 78 -4 -4 994.9 988.1
04 18.03 С 22
{29}
н/о н/о +4.5 +0.3 74 -4 -4 996.6 989.8
05 18.03 С 20
{26}
н/о н/о +4.5 +0.1 73 -4 -4 998.2 991.3
06 18.03 С 21
{29}
15 км 1/1 600 м
[Cu med, cong]
+4.5 -0.5 70 -4 -4 999.8 992.9 +4.0 +4.7
07 18.03 С 21
{27}
н/о н/о +4.6 -1.4 65 -4 -4 1001.5 994.6
08 18.03
{25}
н/о н/о +4.9 -1.5 63 1003.0 996.1
09 18.03 С 19
{24}
20 км 1/1 600 м
[Cu hum]
+5.3 -2.3 58 -2 -2 1004.5 997.6
10 18.03 С 17
{25}
н/о н/о +5.4 -1.9 59 -2 -2 1005.9 999.0
11 18.03
{23}
н/о н/о +5.5 -2.1 58 1007.1 1000.2
12 18.03 С 16
{27}
40 км 1/1 1000 м
[Cu hum]
+5.6 -1.5 60 -1 -1 1008.2 1001.3
13 18.03 С 18
{22}
н/о н/о +5.5 -1.2 62 -2 -2 1009.1 1002.2
14 18.03 С 18
{22}
н/о н/о +5.4 -1.7 60 -2 -2 1010.2 1003.3
15 18.03 С 16
{22}
40 км ясно +5.2 -2.6 57 -2 -2 1011.5 1004.6
16 18.03 С 15
{20}
н/о н/о +5.0 -1.2 64 -2 -2 1012.7 1005.8
17 18.03 С 14
{19}
н/о н/о +4.7 -2.1 61 -2 -2 1013.8 1006.8
18 18.03 С 14
{22}
30 км 1/1 1000 м
[Cu hum]
+4.6 -1.0 67 -3 -3 1014.8 1007.8 +4.5 +5.7
19 18.03 С 13
{18}
н/о н/о +4.5 -0.7 69 -3 -3 1015.7 1008.7
20 18.03 С 12
{17}
н/о н/о +4.4 -0.8 69 -3 -3 1016.8 1009.8
21 18.03 С 11
{15}
30 км ясно +4.3 -0.3 72 -2 -2 1017.6 1010.6
22 18.03
{14}
н/о н/о +4.4 -0.4 71 1018.1 1011.1
23 18.03 С 9
{12}
н/о н/о +4.2 -0.4 72 -2 -2 1018.3 1011.3
00 19.03 С 6
{18}
н/о н/о +4.0 -0.2 74 -1 -1 1019.0 1012.0
01 19.03 С 6
{8}
н/о н/о +3.8 -0.2 75 -2 -2 1019.9 1012.9
02 19.03 С 6
{8}
н/о н/о +3.7 +0.1 77 -2 -2 1020.4 1013.4
03 19.03 С 5
{7}
н/о н/о +3.8 -0.4 74 -1 -1 1020.5 1013.5
04 19.03 С 3
{5}
н/о н/о +3.3 -0.9 74 -0 -0 1020.6 1013.6
05 19.03 В 2
{3}
н/о н/о +2.6 -1.5 74 -0 -0 1020.9 1013.8
06 19.03 Ю 3
{8}
40 км 5/4 1000 м
[Sc Cs]
+2.7 -0.1 82 -1 -1 1021.5 1014.4 +2.6 +4.6
07 19.03 ЮВ 3
{4}
н/о н/о +2.7 +0.1 83 -1 -1 1021.5 1014.4
08 19.03 Ю 4
{5}
н/о н/о +4.0 +0.7 79 -0 -0 1021.7 1014.7
09 19.03 Ю 5
{7}
40 км 9/0
[Cs]
+4.4 +1.3 80 -0 +1 1021.9 1014.9
10 19.03 Ю 6
{7}
н/о н/о +5.1 +1.8 79 0 0 1022.1 1015.1
11 19.03 Ю 7
{8}
н/о н/о +5.3 +1.8 78 0 0 1022.1 1015.1
12 19.03 Ю 7
{9}
30 км 9/0
[Ac cast Cs]
+5.7 +1.4 74 +1 +2 1021.8 1014.8
13 19.03 Ю 8
{11}
н/о н/о +5.2 +0.8 73 -0 -0 1021.5 1014.5
14 19.03 Ю 9
{12}
н/о н/о +5.2 +0.8 73 -1 -1 1020.9 1013.9
15 19.03 Ю 8
{12}
30 км 10/0 2000 м
[Ac As]
+5.1 +1.2 76 -1 -0 1020.4 1013.4
16 19.03 Ю 11
{14}
н/о н/о +5.1 +1.6 78 -1 -1 1019.9 1012.9
17 19.03 Ю 11
{15}
н/о н/о +5.0 +2.2 82 -2 -2 1019.8 1012.8
18 19.03 Ю 11
{16}
15 км 10/10 600 м
[St]
+5.1 +3.0 86 -2 -2 1019.2 1012.2 +2.6 +5.8
19 19.03 Ю 14
{18}
н/о н/о +5.2 +3.7 90 -2 -2 1018.3 1011.3 0.5
20 19.03 Ю 14
{17}
н/о н/о +5.2 +4.0 92 -2 -2 1017.7 1010.7 0.3
21 19.03 Ю 11
{17}
5000 м дождь 10/9 300 м
[Frnb As op]
+5.5 +4.5 93 -1 -1 1017.0 1010.0 0.5
22 19.03 ЮЗ 11
{15}
н/о н/о +5.6 +4.7 94 -1 -1 1016.7 1009.7 0.9
23 19.03 ЮЗ 11
{15}
н/о н/о +5.8 +5.1 95 -1 -1 1016.4 1009.4 0.4
00 20.03 З 10
{18}
н/о н/о +6.0 +5.3 95 -0 -0 1016.6 1009.7 0.5
01 20.03 З 8
{11}
н/о н/о +6.2 +5.5 95 +1 +1 1016.9 1010.0 0.1
02 20.03 З 8
{10}
н/о н/о +6.2 +5.5 95 +1 +1 1017.5 1010.6
03 20.03 З 7
{10}
н/о н/о +5.6 +4.9 95 0 0 1017.8 1010.8
04 20.03 З 6
{9}
н/о н/о +5.4 +4.7 95 0 0 1018.2 1011.2
05 20.03 З 7
{9}
н/о н/о +5.4 +4.5 94 -0 -0 1019.1 1012.1
06 20.03 З 8
{11}
20 км {дождь} 5/0
[Ac trans Cs]
+5.7 +4.7 93 -0 -0 1019.4 1012.4 +5.1 +6.3 3
07 20.03 З 7
{10}
н/о н/о +5.8 +4.6 92 0 0 1020.5 1013.5
08 20.03 З 8
{10}
н/о н/о +6.2 +4.9 91 +1 +1 1021.1 1014.1
09 20.03 З 8
{10}
20 км 1/0
[Cs]
+6.7 +4.5 86 +1 +2 1021.6 1014.6
10 20.03 З 8
{11}
н/о н/о +6.9 +4.9 87 +2 +2 1022.2 1015.2
11 20.03 З 5
{10}
н/о н/о +6.9 +4.7 86 +3 +3 1022.8 1015.8
12 20.03 З 6
{11}
5000 м дымка 10/10 1000 м
[St]
+6.9 +4.9 87 +2 +2 1023.2 1016.2
13 20.03 З 6
{8}
н/о н/о +6.7 +5.0 89 +2 +2 1023.5 1016.5
14 20.03 З 6
{7}
н/о н/о +7.0 +5.2 88 +2 +2 1023.2 1016.2
15 20.03 З 6
{8}
6000 м дымка 9/6 1000 м
[Sc Ac As]
+6.6 +4.9 89 +2 +2 1023.2 1016.2
16 20.03 ЮЗ 5
{7}
н/о н/о +6.5 +5.0 90 +2 +2 1023.2 1016.2
17 20.03 ЮЗ 5
{6}
н/о н/о +6.1 +4.8 91 +2 +2 1022.7 1015.7
18 20.03 ЮЗ 5
{8}
5000 м дымка 8/3 600 м
[St Ac As Cs]
+5.8 +4.6 92 +1 +1 1022.7 1015.7 +5.6 +7.3
19 20.03 Ю 7
{8}
н/о н/о +5.7 +4.7 93 0 0 1021.8 1014.8
20 20.03 Ю 8
{11}
н/о н/о +5.7 +4.7 93 -0 -0 1021.5 1014.5
21 20.03 Ю 9
{14}
500 м туман ?/? +5.7 +4.8 94 -0 -0 1020.5 1013.5
22 20.03 Ю 10
{13}
н/о н/о +5.9 +5.2 95 -0 -0 1019.7 1012.7 0.1
23 20.03 Ю 10
{14}
н/о н/о +6.4 +5.7 95 0 0 1018.9 1011.9
00 21.03 ЮЗ 11
{17}
н/о н/о +6.4 +5.7 95 0 0 1018.1 1011.2 0.1
01 21.03 ЮЗ 10
{14}
н/о н/о +6.7 +6.0 95 +1 +1 1017.9 1011.0
02 21.03 З 13
{15}
н/о н/о +7.5 +6.8 95 +1 +1 1017.4 1010.5
03 21.03 З 13
{15}
н/о н/о +7.6 +6.7 94 +1 +1 1017.5 1010.6
04 21.03 З 11
{15}
н/о н/о +7.2 +6.3 94 +1 +1 1017.6 1010.7 0.2
05 21.03 З 11
{15}
н/о н/о +6.8 +5.9 94 +1 +1 1018.0 1011.1 0.4
06 21.03 З 11
{15}
6000 м слаб. дождь {туман} 10/0 300 м
[As op]
+6.9 +6.0 94 +1 +1 1018.5 1011.6 +5.5 +7.6 0.8
07 21.03 З 11
{13}
н/о н/о +6.8 +5.9 94 +1 +1 1019.1 1012.2 0.1
08 21.03 З 10
{13}
н/о н/о +6.8 +6.1 95 +1 +1 1019.6 1012.7 0.5
09 21.03 З 9
{11}
900 м слаб. морось {дождь} н/о +6.9 +6.2 95 +1 +1 1020.6 1013.6 0.2
10 21.03 З 6
{10}
н/о н/о +6.7 +6.0 95 +2 +2 1021.9 1014.9 0.1
11 21.03 СЗ 6
{9}
н/о н/о +7.2 +6.5 95 +3 +3 1022.7 1015.7 0.1
12 21.03 СЗ 6
{13}
8000 м дымка {дождь} 9/0
[As trans Cs]
+7.2 +6.5 95 +3 +4 1023.9 1016.9 1
13 21.03 СЗ 6
{9}
н/о н/о +7.0 +6.3 95 +2 +2 1024.9 1017.9
14 21.03 СЗ 7
{10}
н/о н/о +7.3 +6.4 94 +2 +2 1025.7 1018.7
15 21.03 СЗ 8
{10}
10 км 8/0
[Cs]
+7.2 +5.4 88 +2 +2 1026.9 1019.9
17 21.03 СЗ 4
{7}
н/о н/о +6.2 +4.0 86 +2 +2 1028.0 1021.0
18 21.03 СЗ 3
{10}
15 км 6/1 600 м
[Sc Cs]
+5.5 +3.5 87 +2 +2 1028.4 1021.4 +5.5 +7.4 1
19 21.03 З 2
{3}
н/о н/о +4.7 +2.9 88 +2 +2 1029.1 1022.0
20 21.03 З 2
{3}
н/о н/о +4.4 +2.8 89 +2 +2 1029.3 1022.2
21 21.03 ЮЗ 2
{4}
15 км 1/0
[Cs]
+4.2 +2.6 89 +1 +1 1029.3 1022.2
22 21.03 З 3
{4}
н/о н/о +4.5 +3.0 90 +1 +1 1030.0 1022.9
23 21.03 ЮЗ 3
{4}
н/о н/о +4.3 +3.0 91 +1 +1 1030.2 1023.1
01 22.03 Ю 5
{6}
н/о н/о +4.2 +3.0 92 -1 -1 1028.4 1021.3
02 22.03 Ю 7
{9}
н/о н/о +4.4 +3.2 92 -1 -1 1028.0 1020.9
03 22.03 Ю 7
{9}
н/о н/о +4.5 +3.5 93 -1 -1 1027.6 1020.5
04 22.03 Ю 9
{11}
н/о н/о +4.6 +3.4 92 -2 -2 1026.4 1019.3
05 22.03 Ю 11
{14}
н/о н/о +4.5 +2.9 89 -3 -3 1025.7 1018.7
06 22.03 Ю 13
{16}
15 км 9/0 2000 м
[Ac lent Cs]
+4.7 +1.7 81 -3 -3 1025.0 1018.0 +3.8 +5.5
07 22.03 Ю 12
{19}
н/о н/о +5.2 +1.2 75 -2 -2 1024.2 1017.2
08 22.03 Ю 14
{19}
н/о н/о +5.4 +1.0 73 -2 -2 1023.4 1016.4
09 22.03 Ю 16
{21}
20 км в посл. час дождь 10/9 600 м
[Sc]
+5.5 +1.4 75 -2 -2 1022.8 1015.8
10 22.03 Ю 17
{23}
н/о н/о +5.2 +2.9 85 -3 -3 1021.9 1014.9
11 22.03 Ю 16
{23}
н/о н/о +5.2 +3.5 89 -3 -3 1020.5 1013.5
12 22.03 Ю 17
{23}
3000 м слаб. морось {дождь} 10/10 200 м
[St]
+5.5 +4.3 92 -2 -2 1019.1 1012.1 0.1
13 22.03 Ю 17
{24}
н/о н/о +5.6 +4.6 93 -2 -2 1018.3 1011.3 0.2
14 22.03 Ю 15
{22}
н/о н/о +5.7 +4.8 94 -2 -2 1017.6 1010.6 0.2
15 22.03 Ю 16
{22}
4000 м слаб. морось 10/8 200 м
[Frnb As op]
+5.8 +4.9 94 -2 -2 1016.7 1009.7 0.1
16 22.03 Ю 16
{22}
н/о н/о +5.8 +4.9 94 -2 -2 1015.8 1008.9 0.1
17 22.03 Ю 15
{20}
н/о н/о +5.8 +4.9 94 -2 -2 1015.2 1008.3
18 22.03 Ю 15
{24}
900 м туман ?/? +5.8 +5.1 95 -2 -2 1014.4 1007.5 +4.7 +6.0 0.7
19 22.03 Ю 12
{19}
н/о н/о +6.2 +5.5 95 -1 -1 1013.6 1006.7 0.2
20 22.03 ЮЗ 13
{17}
н/о н/о +6.2 +5.5 95 -1 -1 1013.4 1006.5 1
21 22.03 ЮЗ 11
{17}
2000 м слаб. морось {дождь} 10/9 100 м
[Frnb As op]
+6.1 +5.4 95 -0 -0 1013.6 1006.7 0.3
22 22.03 ЮЗ 10
{13}
н/о н/о +6.3 +5.6 95 0 0 1013.8 1006.9
23 22.03 З 11
{13}
н/о н/о +6.2 +5.5 95 -0 -0 1014.3 1007.4
00 23.03 З 10
{19}
н/о н/о +6.0 +4.0 87 -0 -0 1014.7 1007.8
01 23.03 З 15
{17}
н/о н/о +6.1 +1.8 74 -1 -1 1015.2 1008.3
02 23.03 З 16
{21}
н/о н/о +6.0 +0.8 69 -1 -1 1015.5 1008.6
03 23.03 З 14
{21}
н/о н/о +5.7 +1.1 72 -1 -1 1015.8 1008.9
04 23.03 З 11
{23}
н/о н/о +5.3 +1.2 75 -1 -1 1016.3 1009.3
05 23.03 З 16
{20}
н/о н/о +5.3 +0.5 71 -2 -2 1016.5 1009.5
06 23.03 З 15
{23}
20 км {морось} 3/3 600 м
[Sc Cs]
+5.4 +0.4 70 -2 -2 1017.0 1010.0 +5.2 +6.4 2
07 23.03 З 16
{20}
н/о н/о +5.6 +0.4 69 -2 -2 1017.4 1010.4
08 23.03 З 16
{20}
н/о н/о +5.9 +0.9 70 -1 -1 1017.6 1010.6
09 23.03 З 20
{25}
20 км 4/4 600 м
[Cu hum]
+4.3 +0.6 77 -4 -4 1018.0 1011.0
10 23.03 З 18
{23}
н/о н/о +5.8 +1.2 72 -2 -2 1018.5 1011.5
11 23.03 З 17
{24}
н/о н/о +5.8 +2.5 79 -2 -2 1019.1 1012.1
12 23.03 З 17
{25}
20 км {ливн. осадки} 3/3 600 м
[Cu med, cong]
+6.3 +2.0 74 -1 -1 1019.5 1012.5
13 23.03 З 16
{27}
н/о н/о +5.8 +2.3 78 -2 -2 1019.8 1012.8 1
14 23.03 З 17
{27}
н/о н/о +6.0 +2.3 77 -1 -1 1020.3 1013.3 0.9
15 23.03 З 15
{24}
20 км {ливн. осадки} 1/1 600 м
[Cu med, cong]
+6.3 +1.6 72 -1 -1 1020.7 1013.7
16 23.03 З 15
{22}
н/о н/о +6.2 +2.3 76 -1 -1 1021.6 1014.6
17 23.03 З 13
{18}
н/о н/о +6.1 +0.5 67 -0 -0 1021.9 1014.9
18 23.03 З 13
{27}
15 км в посл. час крупа {ливн. осадки} 5/5 600 м
[Cb cap]
+5.4 +2.1 79 -2 -2 1022.6 1015.6 +3.1 +6.8 3
19 23.03 З 10
{18}
н/о н/о +5.7 +2.2 78 -0 -0 1023.2 1016.2
20 23.03 З 13
{20}
н/о н/о +5.0 +1.0 75 -2 -2 1023.9 1016.9
21 23.03 З 8
{17}
20 км {ливн. осадки} 1/1 600 м
[Cu hum]
+5.0 +1.9 80 -1 -1 1024.2 1017.2
22 23.03 З 7
{17}
н/о н/о +4.8 +1.7 80 -1 -1 1024.5 1017.5
23 23.03 З 9
{11}
н/о н/о +5.3 +1.8 78 -1 -1 1024.3 1017.3
00 24.03 З 7
{20}
н/о н/о +5.3 +2.8 84 -0 -0 1023.9 1016.9
01 24.03 ЮЗ 8
{9}
н/о н/о +5.3 +3.0 85 -1 -1 1023.3 1016.3
02 24.03 ЮЗ 9
{11}
н/о н/о +5.2 +3.4 88 -1 -1 1022.3 1015.3
03 24.03 ЮЗ 10
{12}
н/о н/о +5.2 +3.4 88 -1 -1 1021.3 1014.3
04 24.03 ЮЗ 10 н/о н/о +5.3 +3.3 87 -1 -1 1020.6 1013.6
05 24.03 ЮЗ 10
{14}
н/о н/о +5.3 +3.2 86 -1 -1 1019.4 1012.4
06 24.03 ЮЗ 8
{14}
15 км {ливн. осадки} 8/4 600 м
[Cu med, cong Cs]
+5.2 +3.2 87 -1 -1 1018.7 1011.7 +4.6

 

Местоположение метеостанции Маяк Utsira (Норвегия): широта 59.31 долгота 4.88 высота над уровнем моря 55 м.

В архиве по умолчанию представлена погода на Маяке Utsira за последнюю неделю. Архивные данные за месяц целиком и за предыдущие месяцы, начиная с января 2011 года, Вы можете получить, выбрав интересующий диапазон дат из раскрывающегося списка и нажав кнопку "Ввод!".


*Определитесь, кто Вы:
робот инопланетянин человек

Внимание! Время в таблицах - всемирное. Для получения местного времени необходимо прибавить поправку, которая равна 1 ч.

Смотрите также архив погоды в соседних городах и на ближайших метеорологических станциях:

Погода в Роваере (Норвегия) (18 км)
Погода в Аэропорту Haugesund (Норвегия) (19 км)
Погода в Квитсёй (Норвегия) (41 км)
Погода в Недре Ватс (Норвегия) (52 км)
Погода в Ставангере (Норвегия) (62 км)
Погода в Ставангер аэропорту (Норвегия) (65 км)
Погода в Фистере (Норвегия) (67 км)
Погода на Маяке Slatteroy (Норвегия) (68 км)
Погода в Сархейме (Норвегия) (75 км)
Погода на Лярватне (Норвегия) (76 км)

Пояснения к столбцам:

Ветер - указаны скорость ветра в м/с - средняя за 10 мин, порывы в срок и между сроками (в фигурных скобках) и направление, откуда дует ветер: С - северный, СВ - северо-восточный, В - восточный, ЮВ - юго-восточный, Ю - южный, ЮЗ - юго-западный, З - западный, СЗ - северо-западный.
Видимость - горизонтальная дальность видимости в метрах или километрах. При видимости от 1 до 10 км при отсутствии осадков обычно наблюдается дымка, при ухудшении видимости до 1 км и менее - туман. В сухую погоду видимость может ухудшаться дымом, пылью или мглою.
Явления - указаны атмосферные явления, наблюдавшиеся в срок или в последний час перед сроком; фигурными скобками обозначены явления, наблюдавшиеся между сроками (за 1-3 часа до срока); квадратными скобками обозначены град или гололедные отложения с указанием их диаметра в мм.
Облачность - указаны через наклонную черту общая и нижняя облачность в баллах и высота нижней границы облаков в метрах; квадратными скобками обозначены формы облаков: Ci - перистые, Cs - перисто-слоистые, Cc - перисто-кучевые, Ac - высококучевые, As - высокослоистые, Sc - слоисто-кучевые, Ns - слоисто-дождевые, Cu - кучевые, Cb - кучево-дождевые. Подробнее классификацию облаков см. в Атласе облаков (PDF).
T - Температура воздуха - температура, измеренная на высоте 2 м над землей.
Td - Температура точки росы - температура, при понижении до которой содержащийся в воздухе водяной пар достигнет насыщения.
f - Относительная влажность воздуха - влажноcть воздуха, измеренная на высоте 2 м над землей.
Te - Эффективная температура - температура, которую ощущает одетый по сезону человек в тени. Характеристика душности погоды. При расчете учитывается влияние влажности воздуха и скорости ветра на теплоощущения человека.
Tes - Эффективная температура на солнце - температура, которую ощущает человек, с поправкой на солнечный нагрев. Характеристика знойности погоды. Зависит от высоты солнца над горизонтом, облачности и скорости ветра. Ночью, в пасмурную погоду, а также при ветре 12 м/с и более поправка равна нулю.
P - Атмосферное давление - приведенное к уровню моря атмосферное давление.
Po - Атмосферное давление - измеренное на уровне метеостанции атмосферное давление.
Tmin - Минимальная температура - минимум температуры воздуха на высоте 2 м над землей.
Tmax - Максимальная температура - максимум температуры воздуха на высоте 2 м над землей.
R - Количество осадков - Количество выпавших осадков за период времени, мм. При наведении курсора мыши на число - период времени, за который выпало указанное количество осадков.
R24 - Количество осадков - Количество выпавших осадков за 24 часа, мм.
S - Снежный покров - Высота снежного покрова, см. При наведении курсора мыши на число - состояние снежного покрова и степень покрытия местности в баллах.